NKS78L KJAX-KMIA

Flight info

Callsign NKS78L
Flight time 0h 55m
Altitude 28000
Route EXBOX2 EXBOX PRMUS DEBRL CSTAL3
Aircraft A20N/M-SDE2E3FGHIRWXY/LB1

Departure

Time 2026-05-05 20:12
Airport Jacksonville International Airport (KJAX)

Arrival

Time 2026-05-05 21:07
Airport Miami International Airport (KMIA)
Time Latitude Longitude Altitude Speed Heading
2026-05-05 19:40 30.49017 -81.68573 44 ft 0 kts 319°
2026-05-05 19:56 30.49015 -81.68571 44 ft 3 kts 319°
2026-05-05 19:56 30.48995 -81.68551 45 ft 4 kts 315°
2026-05-05 19:56 30.48981 -81.68527 44 ft 4 kts 278°
2026-05-05 19:57 30.48985 -81.68503 44 ft 4 kts 212°
2026-05-05 19:57 30.48991 -81.68499 44 ft 1 kts 206°
2026-05-05 19:57 30.48993 -81.68498 44 ft 0 kts 206°
2026-05-05 20:05 30.48991 -81.68499 44 ft 2 kts 206°
2026-05-05 20:06 30.48959 -81.68517 42 ft 6 kts 206°
2026-05-05 20:06 30.48926 -81.68536 43 ft 4 kts 206°
2026-05-05 20:06 30.48895 -81.68555 45 ft 6 kts 213°
2026-05-05 20:06 30.48869 -81.68611 42 ft 10 kts 269°
2026-05-05 20:07 30.48892 -81.68682 40 ft 10 kts 296°
2026-05-05 20:07 30.48944 -81.68763 41 ft 13 kts 323°
2026-05-05 20:07 30.49018 -81.68821 40 ft 13 kts 312°
2026-05-05 20:07 30.49060 -81.68906 41 ft 11 kts 296°
2026-05-05 20:08 30.49098 -81.68996 42 ft 14 kts 296°
2026-05-05 20:08 30.49069 -81.69105 40 ft 16 kts 232°
2026-05-05 20:08 30.48993 -81.69217 41 ft 19 kts 231°
2026-05-05 20:08 30.48911 -81.69341 39 ft 17 kts 247°
2026-05-05 20:09 30.48971 -81.69458 38 ft 21 kts 310°
2026-05-05 20:09 30.49074 -81.69597 41 ft 23 kts 310°
2026-05-05 20:09 30.49185 -81.69746 41 ft 26 kts 310°
2026-05-05 20:09 30.49290 -81.69888 39 ft 16 kts 311°
2026-05-05 20:10 30.49298 -81.69987 39 ft 14 kts 224°
2026-05-05 20:10 30.49259 -81.70025 37 ft 11 kts 219°
2026-05-05 20:10 30.49175 -81.70028 42 ft 9 kts 131°
2026-05-05 20:10 30.49165 -81.70015 42 ft 0 kts 129°
2026-05-05 20:11 30.49165 -81.70014 42 ft 2 kts 129°
2026-05-05 20:11 30.48988 -81.69775 43 ft 74 kts 131°
2026-05-05 20:11 30.48511 -81.69129 34 ft 136 kts 130°
2026-05-05 20:11 30.47817 -81.68197 302 ft 156 kts 130°
2026-05-05 20:12 30.47146 -81.67283 1068 ft 146 kts 129°
2026-05-05 20:12 30.46466 -81.66318 1631 ft 166 kts 128°
2026-05-05 20:12 30.45697 -81.65216 2058 ft 190 kts 128°
2026-05-05 20:12 30.44806 -81.63946 2451 ft 218 kts 129°
2026-05-05 20:13 30.43765 -81.62499 2857 ft 246 kts 131°
2026-05-05 20:13 30.42528 -81.61053 3540 ft 257 kts 136°
2026-05-05 20:13 30.41219 -81.59604 4396 ft 263 kts 136°
2026-05-05 20:13 30.39882 -81.58124 5284 ft 268 kts 136°
2026-05-05 20:14 30.38524 -81.56621 6159 ft 272 kts 136°
2026-05-05 20:14 30.37146 -81.55101 7055 ft 275 kts 137°
2026-05-05 20:14 30.35747 -81.53571 7916 ft 279 kts 137°
2026-05-05 20:14 30.34318 -81.52008 8734 ft 285 kts 137°
2026-05-05 20:15 30.32867 -81.50421 9574 ft 289 kts 137°
2026-05-05 20:15 30.31393 -81.48811 10340 ft 297 kts 137°
2026-05-05 20:15 30.29834 -81.47110 10736 ft 319 kts 137°
2026-05-05 20:15 30.28176 -81.45302 11230 ft 334 kts 137°
2026-05-05 20:16 30.26460 -81.43431 11940 ft 342 kts 137°
2026-05-05 20:16 30.24719 -81.41532 12729 ft 347 kts 137°
2026-05-05 20:16 30.22947 -81.39602 13517 ft 353 kts 137°
2026-05-05 20:16 30.21148 -81.37642 14275 ft 358 kts 137°
2026-05-05 20:17 30.19320 -81.35651 15012 ft 363 kts 137°
2026-05-05 20:17 30.17468 -81.33636 15720 ft 368 kts 137°
2026-05-05 20:17 30.15574 -81.31575 16421 ft 373 kts 137°
2026-05-05 20:17 30.13684 -81.29521 17108 ft 378 kts 138°
2026-05-05 20:18 30.11755 -81.27426 17788 ft 383 kts 138°
2026-05-05 20:18 30.09799 -81.25304 18431 ft 387 kts 138°
2026-05-05 20:18 30.07819 -81.23156 19053 ft 392 kts 138°
2026-05-05 20:18 30.05788 -81.21020 19657 ft 396 kts 142°
2026-05-05 20:19 30.03463 -81.19296 20233 ft 399 kts 157°
2026-05-05 20:19 30.00815 -81.18377 20797 ft 399 kts 173°
2026-05-05 20:19 29.98052 -81.17990 21379 ft 402 kts 177°
2026-05-05 20:19 29.95255 -81.17711 21898 ft 406 kts 178°
2026-05-05 20:20 29.92415 -81.17438 22400 ft 411 kts 178°
2026-05-05 20:20 29.89560 -81.17016 22902 ft 417 kts 170°
2026-05-05 20:20 29.86792 -81.15918 23378 ft 426 kts 156°
2026-05-05 20:20 29.84114 -81.14404 23837 ft 429 kts 159°
2026-05-05 20:21 29.81338 -81.13237 24267 ft 430 kts 168°
2026-05-05 20:21 29.78396 -81.12637 24714 ft 430 kts 177°
2026-05-05 20:21 29.75399 -81.12397 25150 ft 432 kts 181°
2026-05-05 20:21 29.72378 -81.12341 25570 ft 434 kts 184°
2026-05-05 20:22 29.69347 -81.12390 25979 ft 437 kts 185°
2026-05-05 20:22 29.66292 -81.12489 26395 ft 440 kts 185°
2026-05-05 20:22 29.63216 -81.12599 26791 ft 443 kts 185°
2026-05-05 20:22 29.60122 -81.12702 27171 ft 447 kts 185°
2026-05-05 20:23 29.57036 -81.12792 27545 ft 449 kts 185°
2026-05-05 20:23 29.53905 -81.12872 27900 ft 452 kts 185°
2026-05-05 20:23 29.50742 -81.12947 28070 ft 455 kts 184°
2026-05-05 20:24 29.44396 -81.13090 28091 ft 455 kts 184°
2026-05-05 20:24 29.38058 -81.13228 28091 ft 455 kts 184°
2026-05-05 20:25 29.31711 -81.13367 28081 ft 456 kts 184°
2026-05-05 20:25 29.28543 -81.12985 28087 ft 460 kts 170°
2026-05-05 20:25 29.25413 -81.12254 28082 ft 460 kts 171°
2026-05-05 20:26 29.19131 -81.10763 28086 ft 461 kts 171°
2026-05-05 20:26 29.12868 -81.09225 28092 ft 461 kts 170°
2026-05-05 20:27 29.06587 -81.07672 28092 ft 461 kts 170°
2026-05-05 20:27 29.00307 -81.06117 28091 ft 461 kts 170°
2026-05-05 20:28 28.94080 -81.04575 28091 ft 461 kts 170°
2026-05-05 20:28 28.87809 -81.03024 28082 ft 461 kts 170°
2026-05-05 20:29 28.81501 -81.01886 28085 ft 454 kts 185°
2026-05-05 20:29 28.75183 -81.01538 28072 ft 458 kts 174°
2026-05-05 20:30 28.69045 -80.99450 28072 ft 464 kts 157°
2026-05-05 20:30 28.63514 -80.95615 28063 ft 466 kts 147°
2026-05-05 20:31 28.58185 -80.91390 28072 ft 467 kts 146°
2026-05-05 20:31 28.52842 -80.87107 28073 ft 467 kts 146°
2026-05-05 20:32 28.47530 -80.82844 28089 ft 467 kts 146°
2026-05-05 20:32 28.42213 -80.78582 28091 ft 467 kts 146°
2026-05-05 20:33 28.36711 -80.74669 28083 ft 465 kts 157°
2026-05-05 20:33 28.30772 -80.71785 28072 ft 464 kts 160°
2026-05-05 20:34 28.24793 -80.68977 28063 ft 464 kts 160°
2026-05-05 20:34 28.18707 -80.66523 28065 ft 462 kts 167°
2026-05-05 20:35 28.12525 -80.64656 28064 ft 461 kts 168°
2026-05-05 20:35 28.06308 -80.62804 28063 ft 461 kts 168°
2026-05-05 20:36 28.00104 -80.60948 28057 ft 461 kts 168°
2026-05-05 20:36 27.93891 -80.59089 28055 ft 461 kts 168°
2026-05-05 20:37 27.87696 -80.57237 28055 ft 461 kts 168°
2026-05-05 20:37 27.82544 -80.55698 28064 ft 461 kts 168°
2026-05-05 20:38 27.76346 -80.53850 28063 ft 461 kts 168°
2026-05-05 20:38 27.70142 -80.52002 28055 ft 461 kts 168°
2026-05-05 20:39 27.63973 -80.50011 28060 ft 462 kts 163°
2026-05-05 20:39 27.57898 -80.47599 28063 ft 462 kts 163°
2026-05-05 20:40 27.51833 -80.45178 28064 ft 462 kts 163°
2026-05-05 20:40 27.45765 -80.42770 28063 ft 462 kts 163°
2026-05-05 20:41 27.39814 -80.40415 28064 ft 461 kts 163°
2026-05-05 20:41 27.33742 -80.38017 28056 ft 461 kts 163°
2026-05-05 20:42 27.27673 -80.35623 28053 ft 461 kts 163°
2026-05-05 20:42 27.21607 -80.33234 28046 ft 461 kts 163°
2026-05-05 20:43 27.15577 -80.30885 28045 ft 461 kts 163°
2026-05-05 20:43 27.09504 -80.28527 28045 ft 461 kts 163°
2026-05-05 20:44 27.03469 -80.26186 27911 ft 454 kts 163°
2026-05-05 20:44 27.00491 -80.25030 27363 ft 452 kts 163°
2026-05-05 20:44 26.97522 -80.23881 26838 ft 449 kts 163°
2026-05-05 20:44 26.94578 -80.22741 26375 ft 445 kts 163°
2026-05-05 20:45 26.88760 -80.20490 25413 ft 438 kts 163°
2026-05-05 20:45 26.85919 -80.19399 24914 ft 435 kts 164°
2026-05-05 20:45 26.83062 -80.18332 24464 ft 431 kts 164°
2026-05-05 20:46 26.80191 -80.17267 23942 ft 428 kts 164°
2026-05-05 20:46 26.77379 -80.16225 23482 ft 424 kts 164°
2026-05-05 20:46 26.74593 -80.15194 22972 ft 421 kts 164°
2026-05-05 20:46 26.71861 -80.14190 22509 ft 417 kts 166°
2026-05-05 20:47 26.69077 -80.13338 22026 ft 412 kts 169°
2026-05-05 20:47 26.66302 -80.12582 21538 ft 408 kts 169°
2026-05-05 20:47 26.63548 -80.11843 21085 ft 404 kts 169°
2026-05-05 20:47 26.60829 -80.11114 20565 ft 401 kts 169°
2026-05-05 20:48 26.58111 -80.10415 20075 ft 397 kts 170°
2026-05-05 20:48 26.55421 -80.09743 19577 ft 394 kts 170°
2026-05-05 20:48 26.52757 -80.09080 19096 ft 391 kts 169°
2026-05-05 20:48 26.50107 -80.08420 18615 ft 388 kts 169°
2026-05-05 20:49 26.47480 -80.07766 18148 ft 384 kts 169°
2026-05-05 20:49 26.44873 -80.07160 17632 ft 381 kts 171°
2026-05-05 20:49 26.42291 -80.06606 17186 ft 377 kts 171°
2026-05-05 20:49 26.39756 -80.06057 16668 ft 375 kts 169°
2026-05-05 20:50 26.37205 -80.05398 16210 ft 371 kts 168°
2026-05-05 20:50 26.34699 -80.04714 15715 ft 368 kts 168°
2026-05-05 20:50 26.32249 -80.04040 15602 ft 353 kts 168°
2026-05-05 20:50 26.29905 -80.03394 15444 ft 341 kts 168°
2026-05-05 20:51 26.27664 -80.02779 15238 ft 332 kts 168°
2026-05-05 20:51 26.25398 -80.02380 14801 ft 327 kts 183°
2026-05-05 20:51 26.23156 -80.02658 14393 ft 322 kts 192°
2026-05-05 20:51 26.20967 -80.03141 13964 ft 319 kts 194°
2026-05-05 20:52 26.18799 -80.03652 13560 ft 317 kts 194°
2026-05-05 20:52 26.16647 -80.04158 13135 ft 315 kts 194°
2026-05-05 20:52 26.14513 -80.04655 12738 ft 312 kts 194°
2026-05-05 20:52 26.12386 -80.05145 12323 ft 310 kts 193°
2026-05-05 20:53 26.10279 -80.05629 11922 ft 308 kts 193°
2026-05-05 20:53 26.08182 -80.06110 11518 ft 305 kts 193°
2026-05-05 20:53 26.06114 -80.06613 11133 ft 303 kts 194°
2026-05-05 20:53 26.04067 -80.07140 10689 ft 302 kts 194°
2026-05-05 20:54 26.02034 -80.07669 10387 ft 296 kts 194°
2026-05-05 20:54 26.00047 -80.08186 10137 ft 294 kts 194°
2026-05-05 20:54 25.98046 -80.08706 9899 ft 295 kts 194°
2026-05-05 20:54 25.96069 -80.09219 9648 ft 291 kts 194°
2026-05-05 20:55 25.94092 -80.09737 9408 ft 289 kts 196°
2026-05-05 20:55 25.92240 -80.10588 9148 ft 287 kts 214°
2026-05-05 20:55 25.90751 -80.12024 8906 ft 284 kts 226°
2026-05-05 20:55 25.89415 -80.13636 8660 ft 284 kts 230°
2026-05-05 20:56 25.88311 -80.15457 8418 ft 285 kts 247°
2026-05-05 20:56 25.87866 -80.17582 8184 ft 282 kts 264°
2026-05-05 20:56 25.87815 -80.18347 8108 ft 283 kts 266°
2026-05-05 20:56 25.87813 -80.18389 8104 ft 283 kts 266°
2026-05-05 20:57 25.87741 -80.20583 7831 ft 283 kts 268°
2026-05-05 20:57 25.87690 -80.22821 7308 ft 284 kts 268°
2026-05-05 20:57 25.87638 -80.24995 6811 ft 279 kts 268°
2026-05-05 20:57 25.87585 -80.27132 6370 ft 275 kts 268°
2026-05-05 20:58 25.87526 -80.29246 6062 ft 274 kts 268°
2026-05-05 20:58 25.87463 -80.31355 5774 ft 273 kts 268°
2026-05-05 20:58 25.87397 -80.33473 5550 ft 273 kts 268°
2026-05-05 20:58 25.87330 -80.35585 5339 ft 274 kts 267°
2026-05-05 20:59 25.87261 -80.37695 5116 ft 272 kts 267°
2026-05-05 20:59 25.87150 -80.39782 5010 ft 270 kts 265°
2026-05-05 20:59 25.87010 -80.41864 5003 ft 271 kts 265°
2026-05-05 20:59 25.86880 -80.43953 5003 ft 271 kts 266°
2026-05-05 21:00 25.86755 -80.46046 4932 ft 271 kts 266°
2026-05-05 21:00 25.86632 -80.48141 4807 ft 271 kts 266°
2026-05-05 21:00 25.86509 -80.50221 4666 ft 271 kts 266°
2026-05-05 21:00 25.86223 -80.52280 4418 ft 270 kts 249°
2026-05-05 21:01 25.85187 -80.53974 4252 ft 266 kts 220°
2026-05-05 21:01 25.83557 -80.54921 4130 ft 267 kts 193°
2026-05-05 21:01 25.81726 -80.54899 3992 ft 267 kts 164°
2026-05-05 21:01 25.80098 -80.53935 3877 ft 265 kts 140°
2026-05-05 21:02 25.78809 -80.52523 3738 ft 256 kts 127°
2026-05-05 21:02 25.78207 -80.50746 3569 ft 246 kts 91°
2026-05-05 21:02 25.78602 -80.48954 3361 ft 235 kts 68°
2026-05-05 21:02 25.79162 -80.47289 3054 ft 227 kts 74°
2026-05-05 21:03 25.79442 -80.45596 2729 ft 218 kts 85°
2026-05-05 21:03 25.79509 -80.43963 2436 ft 206 kts 89°
2026-05-05 21:03 25.79555 -80.42415 2170 ft 194 kts 87°
2026-05-05 21:03 25.79620 -80.40964 1906 ft 182 kts 88°
2026-05-05 21:04 25.79676 -80.39613 1687 ft 168 kts 87°
2026-05-05 21:04 25.79727 -80.38364 1468 ft 157 kts 87°
2026-05-05 21:04 25.79776 -80.37192 1275 ft 149 kts 87°
2026-05-05 21:04 25.79825 -80.36041 1077 ft 148 kts 87°
2026-05-05 21:05 25.79873 -80.34893 882 ft 147 kts 87°
2026-05-05 21:05 25.79921 -80.33759 727 ft 147 kts 87°
2026-05-05 21:05 25.79964 -80.32625 490 ft 147 kts 88°
2026-05-05 21:05 25.80005 -80.31496 315 ft 146 kts 87°
2026-05-05 21:06 25.80060 -80.30361 106 ft 147 kts 87°
2026-05-05 21:06 25.80089 -80.29607 33 ft 140 kts 87°
2026-05-05 21:06 25.80143 -80.28368 23 ft 90 kts 87°
2026-05-05 21:06 25.80159 -80.27999 22 ft 55 kts 87°
2026-05-05 21:07 25.80173 -80.27686 22 ft 30 kts 87°
2026-05-05 21:07 25.80125 -80.27548 26 ft 11 kts 135°
2026-05-05 21:07 25.80084 -80.27509 27 ft 7 kts 153°
2026-05-05 21:07 25.80034 -80.27496 27 ft 7 kts 173°
2026-05-05 21:08 25.80024 -80.27495 25 ft 2 kts 177°
2026-05-05 21:08 25.80006 -80.27501 26 ft 4 kts 212°
2026-05-05 21:08 25.79991 -80.27520 27 ft 4 kts 226°
2026-05-05 21:08 25.79957 -80.27535 29 ft 6 kts 188°
2026-05-05 21:09 25.79912 -80.27546 25 ft 6 kts 216°
2026-05-05 21:09 25.79896 -80.27594 24 ft 7 kts 266°
2026-05-05 21:09 25.79892 -80.27652 23 ft 2 kts 264°
2026-05-05 21:09 25.79891 -80.27670 23 ft 3 kts 267°
2026-05-05 21:10 25.79890 -80.27703 22 ft 5 kts 268°
2026-05-05 21:10 25.79888 -80.27756 22 ft 10 kts 266°
2026-05-05 21:10 25.79883 -80.27855 21 ft 14 kts 269°
2026-05-05 21:10 25.79879 -80.27961 21 ft 13 kts 269°
2026-05-05 21:11 25.79897 -80.28050 20 ft 10 kts 272°
2026-05-05 21:11 25.79896 -80.28122 20 ft 8 kts 267°
2026-05-05 21:11 25.79893 -80.28183 21 ft 7 kts 266°
2026-05-05 21:11 25.79892 -80.28227 21 ft 5 kts 269°
2026-05-05 21:12 25.79887 -80.28260 21 ft 3 kts 235°
2026-05-05 21:12 25.79866 -80.28266 21 ft 4 kts 179°
2026-05-05 21:12 25.79838 -80.28266 21 ft 4 kts 178°
2026-05-05 21:12 25.79826 -80.28266 21 ft 0 kts 178°